Weather History for Breckenridge, TX

Change the Weather History Date:

Wednesday, July 17, 2013

  Actual Average (KABI) Record (KABI)
Temperature  
Mean Temperature 78 °F 83 °F  
Max Temperature 85 °F 94 °F 110 °F (1978)
Min Temperature 71 °F 72 °F 65 °F (1900)
Degree Days  
Heating Degree Days 0 0  
Month to date heating degree days 0  
Since 1 June heating degree days 1  
Since 1 July heating degree days 0  
Cooling Degree Days 13 18  
Month to date cooling degree days 299  
Year to date cooling degree days 1131  
Since 1 June cooling degree days 734  
Growing Degree Days 28 (Base 50)    
Moisture  
Dew Point 70 °F    
Average Humidity 84    
Maximum Humidity 97    
Minimum Humidity 58    
Precipitation  
Precipitation 0.02 in 0.06 in 2.85 in (1953)
Month to date precipitation 1.07  
Year to date precipitation 13.57  
Sea Level Pressure  
Sea Level Pressure 30.21 in    
Wind  
Wind Speed 7 mph (East)    
Max Wind Speed 22 mph    
Max Gust Speed 29 mph    
Visibility 10 miles    
Events Rain , Thunderstorm    
T = Trace of Precipitation, MM = Missing Value Source: NWS Daily Summary

Daily Weather History Graph

Daily Weather History Graph

Search for Another Location

Airport:

Trip Planner

Search our weather history database for the weather conditions in past years. The results will help you decide how hot, cold, wet, or windy it might be!

Date:

Astronomy

Jul. 17, 2013 Rise Set
Actual Time 6:39 AM CDT 8:43 PM CDT
Civil Twilight 6:12 AM CDT 9:11 PM CDT
Nautical Twilight 5:38 AM CDT 9:44 PM CDT
Astronomical Twilight 5:01 AM CDT 10:20 PM CDT
Moon 3:38 PM CDT (7/17) 1:41 AM CDT (7/17)
Length of Visible Light 14h 59m
Length of Day
14h 03m
Waxing Gibbous, 67% of the Moon is Illuminated
Jul 17
Waxing Gibbous
Jul 22
Full
Jul 29
Last Quarter
Aug 6
New
Aug 14
First Quarter

Hourly Weather History & Observations

Time (CDT) Temp. Heat Index Dew Point Humidity Pressure Visibility Wind Dir Wind Speed Gust Speed Precip Events Conditions
12:15 AM 74.5 °F - 70.2 °F 86% 30.20 in 10.0 mi East 5.8 mph - N/A   Scattered Clouds
12:35 AM 74.3 °F - 70.7 °F 88% 30.20 in 10.0 mi East 6.9 mph - N/A   Scattered Clouds
1:15 AM 73.9 °F - 70.7 °F 90% 30.20 in 10.0 mi East 6.9 mph - N/A   Scattered Clouds
1:35 AM 73.6 °F - 70.7 °F 91% 30.20 in 10.0 mi East 4.6 mph - N/A   Clear
1:55 AM 73.4 °F - 70.9 °F 92% 30.20 in 10.0 mi East 5.8 mph - N/A   Scattered Clouds
2:15 AM 73.4 °F - 70.9 °F 92% 30.19 in 10.0 mi East 3.5 mph - N/A   Mostly Cloudy
2:35 AM 73.0 °F - 70.9 °F 93% 30.19 in 10.0 mi ESE 3.5 mph - N/A   Overcast
2:55 AM 72.9 °F - 70.9 °F 93% 30.18 in 10.0 mi ESE 4.6 mph - N/A   Mostly Cloudy
3:15 AM 72.7 °F - 71.1 °F 95% 30.18 in 10.0 mi East 4.6 mph - N/A   Scattered Clouds
3:35 AM 72.7 °F - 71.2 °F 95% 30.19 in 10.0 mi East 4.6 mph - N/A   Clear
3:55 AM 72.5 °F - 71.1 °F 95% 30.19 in 10.0 mi East 5.8 mph - N/A   Clear
4:15 AM 72.5 °F - 71.1 °F 95% 30.19 in 10.0 mi East 4.6 mph - N/A   Scattered Clouds
4:35 AM 72.5 °F - 71.1 °F 95% 30.20 in 10.0 mi ESE 3.5 mph - N/A   Scattered Clouds
4:55 AM 72.5 °F - 70.9 °F 95% 30.20 in 10.0 mi ESE 4.6 mph - N/A   Scattered Clouds
5:15 AM 72.5 °F - 70.9 °F 95% 30.20 in 10.0 mi East 4.6 mph - N/A   Mostly Cloudy
5:35 AM 72.5 °F - 70.9 °F 95% 30.20 in 10.0 mi East 3.5 mph - 0.01 in   Overcast
5:55 AM 72.5 °F - 71.1 °F 95% 30.21 in 10.0 mi East 4.6 mph - 0.01 in Rain Rain
6:15 AM 72.5 °F - 70.9 °F 95% 30.21 in 10.0 mi East 4.6 mph - N/A Rain Light Rain
6:35 AM 72.5 °F - 70.7 °F 94% 30.22 in 10.0 mi ESE 8.1 mph - N/A   Overcast
6:55 AM 71.8 °F - 70.2 °F 95% 30.21 in 7.0 mi East 5.8 mph - N/A Rain Heavy Rain
7:15 AM 71.6 °F - 70.7 °F 97% 30.22 in 7.0 mi Calm Calm - N/A Rain Light Rain
7:35 AM 72.0 °F - 71.1 °F 97% 30.23 in 10.0 mi East 4.6 mph - N/A   Light Drizzle
7:55 AM 72.5 °F - 71.6 °F 97% 30.24 in 10.0 mi East 4.6 mph - N/A   Mostly Cloudy
8:15 AM 72.9 °F - 71.6 °F 96% 30.24 in 10.0 mi East 4.6 mph - N/A   Overcast
8:35 AM 73.4 °F - 71.8 °F 95% 30.24 in 10.0 mi ENE 4.6 mph - N/A   Overcast
8:55 AM 73.4 °F - 71.6 °F 94% 30.25 in 10.0 mi East 5.8 mph - N/A   Mostly Cloudy
9:15 AM 74.1 °F - 71.8 °F 92% 30.25 in 10.0 mi East 5.8 mph - N/A   Mostly Cloudy
9:35 AM 74.7 °F - 71.6 °F 90% 30.25 in 10.0 mi East 5.8 mph - N/A   Mostly Cloudy
9:55 AM 75.7 °F - 71.6 °F 87% 30.25 in 10.0 mi ENE 6.9 mph - N/A   Mostly Cloudy
10:15 AM 77.2 °F - 71.8 °F 83% 30.25 in 5.0 mi East 8.1 mph - N/A   Haze
10:35 AM 77.0 °F - 71.1 °F 82% 30.25 in 5.0 mi East 8.1 mph - N/A   Haze
10:55 AM 77.4 °F - 72.1 °F 84% 30.25 in 7.0 mi East 8.1 mph - N/A Rain Light Rain
11:15 AM 79.9 °F - 70.3 °F 73% 30.25 in 10.0 mi East 10.4 mph - N/A   Mostly Cloudy
11:35 AM 80.4 °F 83.8 °F 70.3 °F 71% 30.25 in 7.0 mi ESE 9.2 mph - N/A   Overcast
11:55 AM 80.2 °F 83.6 °F 70.3 °F 72% 30.24 in 10.0 mi East 9.2 mph - N/A   Overcast
12:15 PM 82.2 °F 86.0 °F 69.6 °F 66% 30.24 in 10.0 mi East 13.8 mph 18.4 mph N/A   Overcast
12:35 PM 81.1 °F 84.5 °F 69.6 °F 68% 30.23 in 10.0 mi East 13.8 mph - N/A   Mostly Cloudy
12:55 PM 83.1 °F 87.1 °F 69.6 °F 64% 30.23 in 10.0 mi East 12.7 mph - N/A   Mostly Cloudy
1:15 PM 85.5 °F 89.4 °F 69.1 °F 58% 30.22 in 10.0 mi East 19.6 mph 25.3 mph N/A   Overcast
1:35 PM 84.4 °F 88.5 °F 69.4 °F 61% 30.22 in 10.0 mi East 18.4 mph 24.2 mph N/A   Mostly Cloudy
1:55 PM 83.3 °F 86.9 °F 68.9 °F 62% 30.22 in 10.0 mi East 19.6 mph 26.5 mph N/A   Scattered Clouds
2:15 PM 81.7 °F 84.5 °F 68.0 °F 63% 30.21 in 10.0 mi ESE 13.8 mph 21.9 mph N/A   Clear
2:35 PM 80.4 °F 83.2 °F 68.7 °F 67% 30.21 in 10.0 mi East 15.0 mph 24.2 mph N/A   Clear
2:55 PM 80.4 °F 83.2 °F 68.7 °F 67% 30.20 in 10.0 mi East 10.4 mph 13.8 mph N/A   Clear
3:15 PM 80.2 °F 83.2 °F 69.1 °F 69% 30.19 in 10.0 mi East 13.8 mph 20.7 mph N/A   Scattered Clouds
3:35 PM 81.3 °F 84.8 °F 69.8 °F 68% 30.19 in 10.0 mi ESE 9.2 mph 19.6 mph N/A   Scattered Clouds
3:55 PM 85.1 °F 89.1 °F 69.4 °F 59% 30.19 in 10.0 mi ESE 18.4 mph 23.0 mph N/A   Mostly Cloudy
4:15 PM 80.8 °F 84.2 °F 70.3 °F 70% 30.20 in 10.0 mi ESE 17.3 mph 23.0 mph N/A Rain Light Rain
4:35 PM 79.9 °F - 70.9 °F 74% 30.19 in 10.0 mi ESE 9.2 mph 16.1 mph N/A Rain , Thunderstorm Light Thunderstorms and Rain
4:55 PM 79.7 °F - 69.8 °F 72% 30.19 in 10.0 mi ESE 10.4 mph - N/A Rain Light Rain
5:15 PM 81.5 °F 84.9 °F 69.6 °F 67% 30.19 in 10.0 mi East 9.2 mph - N/A   Scattered Clouds
5:35 PM 80.8 °F 84.1 °F 69.6 °F 69% 30.19 in 10.0 mi East 11.5 mph - N/A   Scattered Clouds
5:55 PM 80.2 °F 83.3 °F 69.8 °F 70% 30.18 in 10.0 mi ESE 9.2 mph - N/A   Scattered Clouds
6:15 PM 80.6 °F 84.1 °F 70.3 °F 71% 30.17 in 10.0 mi ESE 4.6 mph - N/A   Clear
6:35 PM 81.0 °F 84.6 °F 70.3 °F 70% 30.17 in 10.0 mi ESE 6.9 mph - N/A   Clear
6:55 PM 81.5 °F 85.3 °F 70.3 °F 69% 30.18 in 10.0 mi ESE 8.1 mph - N/A   Clear
7:15 PM 81.3 °F 84.8 °F 70.0 °F 68% 30.19 in 10.0 mi ESE 21.9 mph 28.8 mph N/A Rain Light Rain
7:35 PM 73.4 °F - 68.4 °F 84% 30.19 in 10.0 mi ESE 11.5 mph - N/A Rain Light Rain
7:55 PM 73.2 °F - 70.2 °F 90% 30.20 in 10.0 mi SE 5.8 mph - N/A   Mostly Cloudy
8:15 PM 73.2 °F - 70.0 °F 90% 30.20 in 10.0 mi ESE 6.9 mph - N/A   Light Drizzle
8:35 PM 72.9 °F - 70.0 °F 91% 30.20 in 10.0 mi East 4.6 mph - N/A   Light Drizzle
8:55 PM 72.0 °F - 70.0 °F 93% 30.20 in 10.0 mi ESE 3.5 mph - N/A   Light Drizzle
9:15 PM 72.0 °F - 70.0 °F 93% 30.21 in 10.0 mi Calm Calm - N/A   Light Drizzle
9:35 PM 72.0 °F - 70.3 °F 95% 30.21 in 10.0 mi ESE 3.5 mph - N/A Rain Light Rain
9:55 PM 72.0 °F - 70.3 °F 95% 30.20 in 10.0 mi Calm Calm - N/A   Clear
10:15 PM 72.3 °F - 70.9 °F 95% 30.21 in 10.0 mi East 3.5 mph - N/A   Clear
10:35 PM 72.5 °F - 71.1 °F 95% 30.21 in 10.0 mi Calm Calm - 0.01 in   Scattered Clouds
10:55 PM 72.5 °F - 71.1 °F 95% 30.20 in 10.0 mi East 3.5 mph - 0.01 in   Scattered Clouds
11:15 PM 72.7 °F - 71.2 °F 95% 30.21 in 10.0 mi East 4.6 mph - N/A   Clear
11:35 PM 72.7 °F - 71.2 °F 95% 30.21 in 10.0 mi ESE 4.6 mph - N/A   Clear
11:55 PM 72.7 °F - 71.2 °F 95% 30.20 in 10.0 mi ESE 4.6 mph - N/A   Clear